Location: Newark
(43.6583°N, 1.6617°E)
Time: 18:04:48
(UTC+00:00)

Transit 4A - Pass Details

Date: 25 August 2019
Orbit: 865 x 980 km, 66.8° (Epoch: 15 September)

Event Time Altitude Azimuth Distance (km) Brightness Sun altitude
Rises 01:24:02 0° 332° (NNW) 3,643 11.4 -31.8°
Reaches altitude 10° 01:26:47 10° 339° (NNW) 2,678 10.7 -31.6°
Maximum altitude 01:32:40 42° 49° (NE) 1,305 9.0 -31.1°
Drops below altitude 10° 01:38:20 10° 120° (ESE) 2,588 10.2 -30.6°
Enters shadow 01:38:43 - 121° (ESE) 2,715 10.3 -30.6°
Sets 01:40:57 0° 127° (SE) 3,508 - -30.4°
